Location: Elmsmere
(40.9284°N, 73.8207°W)
Time: 05:28:48
(UTC+00:00)

Cosmos 1726 Rocket - Pass Details

Date: 29 October 2020
Orbit: 603 x 629 km, 82.5° (Epoch: 29 November)

Event Time Altitude Azimuth Distance (km) Brightness Sun altitude
Rises 22:12:35 0° 179° (S) 2,853 7.2 -4.2°
Reaches altitude 10° 22:14:47 10° 177° (S) 1,957 6.3 -4.6°
Maximum altitude 22:19:05 67° 95° (E) 669 3.5 -5.3°
Drops below altitude 10° 22:23:27 10° 13° (NNE) 1,988 5.9 -6.1°
Sets 22:25:42 0° 11° (N) 2,903 6.8 -6.6°
